[[{"header":{"parameterUnit":"m.s-1","parameterCategory":1,"la1":30.2991,"la2":30.254,"lo1":-89.0895,"lo2":-89.0444,"dy":0.0017,"dx":0.0017,"nx":28,"ny":28,"refTime":"2024-04-16T09:00:00:Z","depth":0,"parameterNumber":2,"parameterNumberName":"U-component_of_WINDS"},"data":[0,0,0,0,0,0,0,0,0,0,0,0,0,0,0,0,0,0,0,0,0,0,0,0,0,0,0,0,0,0,0,0,0,0,0,0,0,0,0,0,0,0,0,0,0,0,0,0,0,0,0,0,0,0,0,0,0,0,-1.5856,-1.5856,0,-1.5847,-1.5847,-1.5847,-1.5837,-1.5837,-1.5837,-1.5836,-1.5827,-1.5827,-1.5827,0,0,0,0,0,0,0,0,0,0,0,0,0,-1.5864,-1.5864,-1.5856,-1.5856,-1.5856,-1.5847,-1.5847,-1.5847,-1.5837,-1.5837,-1.5837,-1.5836,-1.5827,-1.5827,-1.5827,0,0,0,0,0,0,0,0,0,0,0,0,0,-1.5858,-1.5863,-1.5856,-1.585,-1.5849,-1.5847,-1.5847,-1.5847,-1.5837,-1.5837,-1.5837,-1.5836,-1.5827,-1.5827,-1.5827,-1.5831,0,0,-1.5827,-1.5826,0,0,0,0,0,0,0,0,-1.5858,-1.5858,-1.5851,-1.585,-1.5849,-1.5843,-1.5846,-1.5841,-1.5837,-1.5842,-1.5836,-1.5836,-1.5833,-1.5832,-1.5831,-1.583,-1.583,-1.5827,-1.5826,-1.5826,-1.5826,0,0,0,0,0,0,0,-1.5859,-1.5858,-1.5852,-1.5851,-1.585,-1.5847,-1.5846,-1.5845,-1.5838,-1.5841,-1.584,-1.584,-1.5832,-1.5831,-1.5831,-1.583,-1.5827,-1.5826,-1.5826,-1.5826,-1.5832,-1.5832,0,0,0,0,0,0,-1.586,-1.5859,-1.5853,-1.5852,-1.5853,-1.5847,-1.5846,-1.5845,-1.5838,-1.5837,-1.584,-1.5839,-1.5831,-1.5831,-1.583,-1.5834,-1.5826,-1.5826,-1.5826,-1.5831,-1.5832,-1.5832,0,0,0,0,0,0,-1.586,-1.586,-1.5853,-1.5855,-1.5854,-1.5847,-1.5846,-1.5845,-1.5844,-1.5837,-1.5836,-1.584,-1.5831,-1.583,-1.5831,-1.5833,-1.5826,-1.5826,-1.5831,-1.5832,-1.5832,-1.5841,0,0,0,0,0,0,-1.5861,-1.586,-1.5861,-1.5855,-1.5854,-1.5854,-1.5847,-1.5845,-1.5844,-1.5843,-1.5837,-1.5836,-1.5831,-1.5831,-1.5831,-1.5833,-1.5826,-1.5831,-1.5831,-1.5832,-1.5841,-1.5842,-1.5843,0,0,0,0,0,-1.5861,-1.5864,-1.5861,-1.5861,-1.5855,-1.5854,-1.5853,-1.5847,-1.5844,-1.5845,-1.5841,-1.5836,-1.5833,-1.5831,-1.583,-1.5833,-1.5831,-1.5831,-1.5832,-1.584,-1.5842,-1.5843,0,0,0,0,0,0,-1.587,-1.5863,-1.586,-1.5861,-1.5858,-1.5852,-1.5853,-1.5849,-1.5847,-1.5846,-1.5839,-1.5838,-1.5839,-1.5836,-1.5834,-1.5836,-1.5831,-1.5832,-1.5838,-1.5839,-1.584,-1.5841,-1.5826,0,0,0,0,0,-1.5872,-1.5872,-1.5866,-1.5867,-1.5866,-1.586,-1.5859,-1.5855,-1.5852,-1.585,-1.5846,-1.5843,-1.5841,-1.584,-1.5838,-1.5841,-1.5839,-1.5842,-1.5843,-1.5844,-1.5844,-1.5845,-1.5847,-1.5834,-1.5834,-1.5834,0,0,-1.5877,-1.5873,-1.5873,-1.5869,-1.5866,-1.5865,-1.5859,-1.5858,-1.5858,-1.585,-1.585,-1.5847,-1.5843,-1.5844,-1.5844,-1.5842,-1.5848,-1.5845,-1.5846,-1.5845,-1.5846,-1.5847,-1.5848,-1.5834,-1.5834,-1.5834,0,0,-1.5884,-1.5881,-1.5882,-1.588,-1.5876,-1.5872,-1.5872,-1.5867,-1.5865,-1.5865,-1.5859,-1.5858,-1.5856,-1.5853,-1.5851,-1.5859,-1.5854,-1.5859,-1.5864,-1.5865,-1.5866,-1.5867,-1.5869,-1.587,-1.5859,-1.5859,-1.5859,0,-1.589,-1.5889,-1.5883,-1.5883,-1.5882,-1.5875,-1.5876,-1.5874,-1.587,-1.5869,-1.5866,-1.5863,-1.586,-1.586,-1.5862,-1.5861,-1.5861,-1.5859,-1.5867,-1.5867,-1.5868,-1.587,-1.5871,-1.5859,-1.5859,-1.5859,-1.5859,0,-1.5896,-1.5896,-1.5897,-1.5893,-1.5892,-1.5892,-1.5887,-1.5887,-1.5883,-1.5879,-1.588,-1.5876,-1.5873,-1.5873,-1.5869,-1.5873,-1.5872,-1.5868,-1.5862,-1.587,-1.5872,-1.5873,-1.586,-1.586,-1.586,-1.586,0,0,-1.5909,-1.5902,-1.5903,-1.5901,-1.5896,-1.5896,-1.5896,-1.5894,-1.5893,-1.5891,-1.5891,-1.5889,-1.5886,-1.5884,-1.588,-1.5881,-1.5887,-1.5877,-1.5877,-1.5879,-1.5891,-1.5893,-1.5894,-1.5884,-1.5884,-1.5884,-1.5891,0,-1.5915,-1.5915,-1.5911,-1.5912,-1.5911,-1.5905,-1.5906,-1.5903,-1.59,-1.5899,-1.5896,-1.5894,-1.589,-1.5889,-1.589,-1.5886,-1.5889,-1.5886,-1.5884,-1.5884,-1.5884,-1.5895,-1.5898,-1.5904,-1.5892,-1.5892,-1.5892,0,-1.5922,-1.592,-1.5922,-1.5917,-1.5917,-1.5917,-1.5915,-1.5914,-1.5911,-1.5909,-1.5907,-1.5903,-1.5903,-1.5899,-1.5898,-1.5896,-1.5895,-1.5894,-1.5894,-1.5893,-1.5888,-1.5894,-1.5906,-1.5906,-1.5893,-1.5893,-1.5893,0,-1.5931,-1.5928,-1.5929,-1.5928,-1.5923,-1.5923,-1.5921,-1.5918,-1.5917,-1.5915,-1.5914,-1.5912,-1.5911,-1.5909,-1.5905,-1.5902,-1.5905,-1.5901,-1.5903,-1.5903,-1.5903,-1.5903,-1.5914,-1.5904,-1.5904,-1.5904,-1.5904,0,-1.5938,-1.5939,-1.5933,-1.5933,-1.5934,-1.5929,-1.593,-1.5927,-1.5925,-1.5924,-1.5919,-1.5919,-1.5913,-1.5913,-1.5909,-1.5909,-1.5909,-1.5907,-1.5906,-1.5907,-1.5907,-1.5906,-1.5905,-1.5904,-1.5904,-1.5904,-1.5904,0,-1.5947,-1.5943,-1.5943,-1.5939,-1.5938,-1.5938,-1.5934,-1.5935,-1.5932,-1.5931,-1.5931,-1.5926,-1.5925,-1.592,-1.5918,-1.5916,-1.5917,-1.5915,-1.5918,-1.5917,-1.592,-1.592,-1.593,-1.5931,-1.5921,-1.5921,-1.5921,0,-1.5952,-1.5952,-1.5948,-1.5947,-1.5946,-1.5945,-1.5944,-1.5939,-1.5938,-1.5935,-1.5936,-1.5934,-1.5933,-1.5931,-1.5927,-1.5926,-1.5923,-1.5927,-1.5923,-1.5924,-1.5923,-1.5923,-1.5923,-1.5928,-1.5928,-1.5928,-1.5928,0,-1.596,-1.5958,-1.5957,-1.5955,-1.5954,-1.5953,-1.5951,-1.5951,-1.5945,-1.5945,-1.5943,-1.5942,-1.594,-1.5939,-1.5936,-1.5934,-1.593,-1.593,-1.593,-1.5931,-1.5933,-1.5931,-1.592,-1.5929,-1.5929,-1.5929,-1.5929,-1.5929,-1.5967,-1.5967,-1.5964,-1.5963,-1.5961,-1.596,-1.596,-1.5957,-1.5956,-1.5954,-1.5951,-1.595,-1.5947,-1.5944,-1.5942,-1.5941,-1.5939,-1.594,-1.594,-1.594,-1.5941,-1.5933,-1.5941,-1.5941,-1.5941,-1.5941,-1.5941,0,-1.5975,-1.5973,-1.5972,-1.597,-1.5969,-1.5966,-1.5963,-1.5963,-1.5962,-1.596,-1.5959,-1.5957,-1.5956,-1.5952,-1.5951,-1.5951,-1.5949,-1.5951,-1.595,-1.595,-1.5943,-1.5942,-1.5952,-1.5952,-1.5952,-1.5952,-1.5952,-1.5952,-1.5979,-1.5979,-1.5977,-1.5977,-1.5975,-1.5974,-1.5973,-1.5971,-1.597,-1.5968,-1.5967,-1.5965,-1.5962,-1.596,-1.5959,-1.5958,-1.5957,-1.5959,-1.5958,-1.5951,-1.595,-1.5949,-1.5949,-1.5959,-1.5959,-1.5965,-1.5965,-1.5965]},{"header":{"parameterUnit":"m.s-1","parameterCategory":1,"la1":30.2991,"la2":30.254,"lo1":-89.0895,"lo2":-89.0444,"dy":0.0017,"dx":0.0017,"nx":28,"ny":28,"refTime":"2024-04-16T09:00:00:Z","depth":0,"parameterNumber":3,"parameterNumberName":"V-component_of_WINDS"},"data":[0,0,0,0,0,0,0,0,0,0,0,0,0,0,0,0,0,0,0,0,0,0,0,0,0,0,0,0,0,0,0,0,0,0,0,0,0,0,0,0,0,0,0,0,0,0,0,0,0,0,0,0,0,0,0,0,0,0,4.4884,4.4883,0,4.4835,4.4834,4.4833,4.4755,4.4754,4.4752,4.4751,4.4701,4.4701,4.4701,0,0,0,0,0,0,0,0,0,0,0,0,0,4.491,4.491,4.4884,4.4883,4.4882,4.4835,4.4834,4.4833,4.4755,4.4754,4.4752,4.475,4.4701,4.4701,4.4701,0,0,0,0,0,0,0,0,0,0,0,0,0,4.4884,4.491,4.4884,4.4838,4.4833,4.4835,4.4834,4.4833,4.4756,4.4754,4.4751,4.4749,4.4701,4.4701,4.4701,4.4743,0,0,4.4701,4.4701,0,0,0,0,0,0,0,0,4.4885,4.4883,4.4845,4.4841,4.4836,4.4799,4.4825,4.4803,4.4756,4.4785,4.4751,4.4748,4.4735,4.4732,4.4728,4.4741,4.4739,4.4701,4.4701,4.4701,4.4701,0,0,0,0,0,0,0,4.4887,4.4885,4.4864,4.4845,4.4839,4.482,4.4814,4.482,4.4773,4.4782,4.4777,4.4772,4.4732,4.4728,4.4726,4.4738,4.4701,4.4701,4.4701,4.4701,4.4784,4.4787,0,0,0,0,0,0,4.4896,4.4887,4.4866,4.4863,4.4856,4.4821,4.4814,4.4813,4.4772,4.4764,4.4774,4.4768,4.4729,4.4726,4.4724,4.4771,4.4701,4.4701,4.4701,4.4782,4.4785,4.4787,0,0,0,0,0,0,4.4897,4.4895,4.4868,4.4873,4.4868,4.4823,4.4822,4.4813,4.4809,4.4766,4.4757,4.4778,4.4727,4.4724,4.4739,4.4769,4.4701,4.4701,4.478,4.4783,4.4786,4.4867,0,0,0,0,0,0,4.4898,4.4896,4.4911,4.4874,4.4868,4.4884,4.4824,4.4814,4.4809,4.4801,4.4768,4.476,4.4725,4.474,4.4739,4.4767,4.4701,4.4777,4.4781,4.4785,4.4862,4.4873,4.4882,0,0,0,0,0,4.4899,4.4936,4.4912,4.491,4.4887,4.4886,4.4883,4.4842,4.4811,4.4827,4.48,4.4761,4.4765,4.4742,4.4741,4.4769,4.4775,4.478,4.4785,4.4857,4.4871,4.4882,0,0,0,0,0,0,4.4978,4.493,4.4904,4.4929,4.4913,4.4873,4.4891,4.4858,4.4849,4.4842,4.4792,4.4785,4.4807,4.4789,4.4764,4.4809,4.4764,4.4769,4.482,4.4832,4.4842,4.4846,4.4701,0,0,0,0,0,4.4998,4.5001,4.496,4.4987,4.4979,4.4937,4.4935,4.4905,4.4885,4.4878,4.4851,4.4834,4.4831,4.483,4.4826,4.4859,4.485,4.4878,4.4888,4.4897,4.4902,4.4919,4.4931,4.4804,4.4804,4.4804,0,0,4.504,4.5015,4.502,4.5002,4.4985,4.499,4.4931,4.4939,4.4942,4.4879,4.4892,4.4872,4.4849,4.4874,4.4883,4.486,4.4935,4.4903,4.4911,4.4911,4.4925,4.4937,4.4948,4.4807,4.4807,4.4806,0,0,4.512,4.51,4.5121,4.5105,4.5081,4.5052,4.5058,4.5023,4.5007,4.502,4.4973,4.4976,4.4972,4.4958,4.495,4.5025,4.4989,4.5024,4.5079,4.5096,4.5106,4.5114,4.5142,4.5152,4.5029,4.503,4.503,0,4.5175,4.518,4.5136,4.5146,4.514,4.5083,4.5104,4.5091,4.5066,4.5063,4.5037,4.5032,4.5012,4.5033,4.5051,4.5047,4.5051,4.5028,4.5108,4.5116,4.5123,4.5149,4.5159,4.5034,4.5034,4.5033,4.5033,0,4.525,4.5255,4.5274,4.5252,4.5247,4.5263,4.5221,4.5222,4.5193,4.5167,4.5181,4.5155,4.5145,4.5147,4.5118,4.5164,4.515,4.5117,4.5071,4.5141,4.5164,4.5173,4.5041,4.5039,4.5038,4.5037,0,0,4.5378,4.5331,4.5339,4.5328,4.5297,4.53,4.5313,4.5302,4.5305,4.5289,4.53,4.5298,4.5267,4.5258,4.5227,4.5242,4.5304,4.5207,4.5205,4.5226,4.5353,4.5379,4.5391,4.5279,4.5281,4.5282,4.5355,0,4.5452,4.5471,4.5432,4.5461,4.5465,4.5411,4.5422,4.5405,4.5381,4.5381,4.5355,4.5355,4.5314,4.5308,4.532,4.5294,4.5328,4.5288,4.5289,4.5289,4.5297,4.5403,4.543,4.55,4.5364,4.5365,4.5366,0,4.554,4.553,4.556,4.5527,4.5527,4.5538,4.5526,4.5526,4.5505,4.5487,4.5478,4.5441,4.5452,4.5408,4.5422,4.5395,4.5393,4.538,4.5382,4.5381,4.5333,4.5406,4.5521,4.5532,4.538,4.5379,4.5378,0,4.5632,4.5625,4.5642,4.5634,4.5596,4.5606,4.559,4.5567,4.5563,4.5552,4.555,4.554,4.5535,4.5529,4.5491,4.5462,4.551,4.5463,4.5496,4.5497,4.5509,4.5509,4.5627,4.5507,4.5507,4.5507,4.5506,0,4.5718,4.5739,4.5683,4.5693,4.5715,4.5669,4.5692,4.5671,4.5651,4.5657,4.5609,4.5616,4.5565,4.5566,4.5536,4.5553,4.5551,4.5537,4.5529,4.5542,4.5544,4.554,4.5535,4.5509,4.5509,4.5508,4.5508,0,4.5824,4.5787,4.5803,4.5765,4.5757,4.5774,4.5742,4.5751,4.5724,4.5732,4.5732,4.569,4.5689,4.565,4.5641,4.5621,4.5651,4.5633,4.5658,4.5653,4.5689,4.5686,4.5809,4.5823,4.5694,4.5695,4.5696,0,4.5883,4.5897,4.5862,4.5862,4.5849,4.5851,4.5847,4.5802,4.58,4.5777,4.5789,4.5784,4.5777,4.5778,4.5747,4.574,4.5722,4.5766,4.5721,4.5734,4.5724,4.5724,4.5726,4.5776,4.5778,4.5779,4.578,0,4.599,4.5971,4.5967,4.5958,4.5954,4.5944,4.5931,4.5934,4.5885,4.5886,4.5884,4.5879,4.587,4.5865,4.5853,4.5837,4.5801,4.5794,4.5802,4.5815,4.5829,4.5823,4.5685,4.5792,4.5791,4.579,4.5789,4.5789,4.6075,4.6085,4.6062,4.606,4.6045,4.6034,4.604,4.6015,4.6012,4.6001,4.5975,4.5978,4.5956,4.5935,4.5923,4.5924,4.5902,4.5913,4.5916,4.5919,4.5927,4.5829,4.5921,4.5921,4.5921,4.592,4.592,0,4.6181,4.6163,4.6161,4.6144,4.6143,4.6108,4.6092,4.6093,4.6096,4.6079,4.6074,4.6072,4.6068,4.6037,4.6029,4.6036,4.602,4.6036,4.6035,4.6032,4.5946,4.5941,4.6049,4.6049,4.6049,4.6049,4.6049,4.6049,4.6236,4.6252,4.623,4.6239,4.6221,4.6224,4.6218,4.6207,4.6193,4.6194,4.619,4.6169,4.6147,4.6137,4.6132,4.6123,4.6122,4.6145,4.613,4.6051,4.6038,4.6026,4.6021,4.6145,4.6145,4.6216,4.6217,4.6217]}]]